DW2738 Weather Reports


Display with metric or nautical units.
time (UTC)temp
F
wind
direction
speed
MPH
gust
MPH
rain 1hr
in
rain 24hr
in
rain mn
in
humidity
%
barometer
mb
20260903074544 71 279 0.0 3.0 0.00 0.12 0.12 99 1016.3
20260903074039 71 263 1.0 3.0 0.00 0.12 0.12 99 1016.3
20260903073534 71 276 1.0 3.0 0.00 0.12 0.12 99 1016.2
20260903073030 71 233 2.0 2.0 0.07 0.12 0.12 99 1016.7
20260903072526 71 240 1.0 3.0 0.12 0.12 0.12 99 1017.1
20260903072022 71 240 2.0 3.0 0.21 0.11 0.11 99 1017.1
20260903071518 71 243 2.0 3.0 0.21 0.09 0.09 99 1017.0
20260903071019 71 240 2.0 3.0 0.21 0.07 0.07 99 1017.0
20260903070518 71 249 0.0 3.0 0.17 0.05 0.05 99 1017.8
20260903070015 71 260 3.0 3.0 0.14 0.04 0.04 99 1017.9
20260903065508 71 258 2.0 2.0 0.12 0.02 0.02 99 1017.7
20260903065008 71 265 2.0 3.0 0.07 0.01 0.01 99 1017.8
20260903064502 71 280 2.0 3.0 0.00 0.00 0.00 99 1018.0
20260903063958 71 260 2.0 2.0 0.00 0.00 0.00 99 1018.0
20260903063453 72 246 1.0 2.0 0.00 0.00 0.00 99 1017.3
20260903062948 72 246 1.0 2.0 0.00 0.00 0.00 99 1017.2
20260903062448 71 305 2.0 2.0 0.00 0.00 0.00 99 1017.1
20260903061944 71 285 2.0 2.0 0.00 0.00 0.00 99 1016.6
20260903061438 71 255 3.0 3.0 0.00 0.00 0.00 99 1016.8
20260903060933 71 262 2.0 2.0 0.00 0.00 0.00 99 1016.8
20260903060428 71 262 2.0 2.0 0.00 0.00 0.00 99 1016.9
20260903055926 71 270 2.0 2.0 0.00 0.00 0.00 99 1016.5
20260903055425 71 257 2.0 2.0 0.00 0.00 0.00 99 1016.3
20260903054920 71 257 2.0 3.0 0.00 0.00 0.00 99 1016.4
20260903054420 71 259 2.0 2.0 0.00 0.00 0.00 99 1016.2
20260903053915 72 270 2.0 2.0 0.00 0.00 0.00 99 1016.5
20260903053410 72 270 2.0 2.0 0.00 0.00 0.00 99 1016.5
20260903052907 71 279 2.0 2.0 0.00 0.00 0.00 99 1016.5
20260903052402 71 252 2.0 2.0 0.00 0.00 0.00 99 1016.7
20260903051858 71 253 2.0 2.0 0.00 0.00 0.00 99 1016.8
20260903051352 72 264 2.0 2.0 0.00 0.00 0.00 99 1016.8
20260903050848 72 264 2.0 2.0 0.00 0.00 0.00 99 1017.0
20260903050347 72 264 2.0 2.0 0.00 0.00 0.00 99 1017.0
20260903045842 72 265 2.0 2.0 0.00 0.00 0.00 99 1017.0
20260903045338 72 265 2.0 2.0 0.00 0.00 0.00 99 1017.2
20260903044834 72 258 2.0 2.0 0.00 0.00 0.00 99 1017.1
20260903044329 72 249 1.0 2.0 0.00 0.00 0.00 99 1017.1
20260903043825 72 266 2.0 2.0 0.00 0.00 0.00 99 1017.4
20260903043320 72 266 2.0 2.0 0.00 0.00 0.00 99 1017.3
20260903042819 72 266 2.0 2.0 0.00 0.00 0.00 99 1017.6
20260903042314 72 266 2.0 2.0 0.00 0.00 0.00 99 1017.5
20260903041810 72 240 3.0 3.0 0.00 0.00 0.00 99 1017.6
20260903041307 72 240 3.0 3.0 0.00 0.00 0.00 99 1017.4
20260903040807 72 240 3.0 3.0 0.00 0.00 0.00 99 1017.3
20260903040306 72 240 3.0 3.0 0.00 0.00 0.00 99 1017.3
20260903035802 72 240 3.0 3.0 0.00 0.03 0.03 99 1017.5
20260903035257 72 240 3.0 3.0 0.00 0.03 0.03 99 1017.3
20260903034753 72 240 3.0 3.0 0.00 0.03 0.03 99 1017.3
20260903034248 72 240 3.0 3.0 0.00 0.03 0.03 99 1017.3
20260903033743 72 240 3.0 3.0 0.00 0.03 0.03 99 1017.4
20260903033238 72 240 3.0 3.0 0.00 0.03 0.03 99 1017.5
20260903032732 72 240 3.0 3.0 0.00 0.03 0.03 99 1017.5
20260903032228 72 270 2.0 2.0 0.00 0.03 0.03 99 1017.5
20260903031724 72 270 2.0 2.0 0.00 0.03 0.03 99 1017.6
20260903031223 72 270 2.0 2.0 0.00 0.03 0.03 99 1017.6
20260903030719 72 270 2.0 2.0 0.00 0.03 0.03 99 1017.5
20260903030215 72 270 2.0 2.0 0.00 0.03 0.03 99 1017.4
20260903025710 72 270 2.0 2.0 0.00 0.03 0.03 99 1017.5
20260903025206 72 270 2.0 2.0 0.00 0.03 0.03 99 1017.6
20260903024706 72 270 2.0 2.0 0.00 0.03 0.03 99 1017.3
20260903024204 72 270 2.0 2.0 0.00 0.03 0.03 99 1017.3
20260903023701 72 270 2.0 2.0 0.00 0.03 0.03 99 1017.5
20260903023155 72 270 2.0 2.0 0.00 0.03 0.03 99 1017.2
20260903022649 72 270 2.0 2.0 0.00 0.03 0.03 99 1017.2
20260903022144 72 250 2.0 2.0 0.00 0.03 0.03 99 1017.2
20260903021644 72 253 2.0 2.0 0.00 0.03 0.03 99 1017.2
20260903021138 72 264 2.0 2.0 0.00 0.03 0.03 99 1017.5
20260903020634 72 264 2.0 2.0 0.00 0.03 0.03 99 1017.4
20260903020133 72 264 2.0 2.0 0.00 0.03 0.03 99 1017.4
20260903015629 72 264 2.0 2.0 0.00 0.03 0.03 99 1017.5
20260903015124 72 264 2.0 2.0 0.00 0.03 0.03 99 1017.8
20260903014619 72 264 2.0 2.0 0.00 0.03 0.03 99 1017.7
20260903014118 72 264 2.0 2.0 0.00 0.03 0.03 99 1017.5
20260903013613 72 264 2.0 2.0 0.00 0.03 0.03 99 1017.7
20260903013108 72 264 2.0 2.0 0.00 0.03 0.03 99 1017.7
20260903012607 72 264 2.0 2.0 0.00 0.03 0.03 99 1017.4
20260903012106 72 264 2.0 2.0 0.00 0.03 0.03 99 1017.8
20260903011606 72 264 2.0 2.0 0.00 0.03 0.03 99 1017.7
20260903011105 73 263 1.0 1.0 0.00 0.03 0.03 99 1017.9
20260903010601 73 263 1.0 1.0 0.00 0.03 0.03 99 1018.0
20260903010059 73 263 1.0 1.0 0.00 0.03 0.03 99 1017.7
20260903005554 73 263 1.0 1.0 0.00 0.03 0.03 99 1017.7
20260903005050 73 263 1.0 1.0 0.00 0.03 0.03 99 1018.1
20260903004544 73 263 1.0 1.0 0.00 0.03 0.03 99 1018.1
20260903004040 73 263 1.0 1.0 0.00 0.03 0.03 99 1018.0
20260903003535 73 263 1.0 1.0 0.00 0.03 0.03 99 1017.8
20260903003030 73 263 1.0 1.0 0.00 0.03 0.03 99 1017.5
20260903002525 73 263 1.0 1.0 0.00 0.03 0.03 99 1017.7
20260903002019 73 263 1.0 1.0 0.00 0.03 0.03 99 1017.5
20260903001514 73 270 2.0 3.0 0.00 0.03 0.03 99 1017.4
20260903001013 73 270 2.0 3.0 0.00 0.03 0.03 99 1017.5
20260903000509 73 258 2.0 2.0 0.00 0.03 0.03 99 1017.3
20260903000008 73 258 2.0 2.0 0.00 0.03 0.03 99 1017.1
20260902235502 73 265 2.0 3.0 0.00 0.03 0.03 99 1017.3
20260902234957 73 264 1.0 2.0 0.00 0.03 0.03 98 1017.2
20260902234451 73 255 1.0 2.0 0.00 0.03 0.03 98 1017.2
20260902233950 73 257 3.0 3.0 0.00 0.03 0.03 97 1017.3
20260902233449 73 257 3.0 3.0 0.00 0.03 0.03 97 1017.4
20260902232944 73 257 3.0 3.0 0.00 0.03 0.03 97 1017.4
20260902232439 73 257 3.0 3.0 0.00 0.03 0.03 97 1017.3
20260902231938 73 257 3.0 3.0 0.00 0.03 0.03 97 1017.6
20260902231433 73 263 3.0 3.0 0.00 0.03 0.03 97 1017.2
20260902230928 73 251 3.0 3.0 0.00 0.03 0.03 97 1017.3
20260902230427 73 280 2.0 3.0 0.00 0.03 0.03 97 1017.2
20260902225922 73 258 2.0 3.0 0.00 0.03 0.03 97 1017.3
20260902225417 74 250 2.0 2.0 0.00 0.03 0.03 97 1017.2
20260902224916 73 261 2.0 5.0 0.00 0.03 0.03 97 1017.2
20260902224415 74 254 1.0 3.0 0.00 0.03 0.03 97 1017.6
20260902223913 74 287 2.0 3.0 0.00 0.03 0.03 97 1017.7
20260902223413 74 293 2.0 2.0 0.00 0.03 0.03 96 1018.0
20260902222908 74 265 2.0 3.0 0.00 0.03 0.03 96 1017.8
20260902222406 74 290 2.0 2.0 0.00 0.03 0.03 96 1017.7
20260902221905 74 270 2.0 3.0 0.00 0.03 0.03 96 1017.8
20260902221405 74 286 2.0 2.0 0.00 0.03 0.03 95 1017.6
20260902220900 74 230 3.0 3.0 0.00 0.03 0.03 95 1017.5
20260902220400 74 265 2.0 3.0 0.00 0.03 0.03 95 1017.6
20260902215855 74 262 2.0 4.0 0.00 0.03 0.03 95 1017.7
20260902215350 74 275 2.0 2.0 0.00 0.03 0.03 95 1017.7
20260902214846 75 258 2.0 3.0 0.00 0.03 0.03 94 1018.0
20260902214345 75 340 1.0 2.0 0.00 0.03 0.03 94 1018.0
20260902213840 75 270 1.0 4.0 0.00 0.03 0.03 94 1017.8
20260902213336 75 241 2.0 4.0 0.00 0.03 0.03 93 1018.1
20260902212834 75 304 0.0 4.0 0.00 0.03 0.03 93 1017.7
20260902212331 75 203 3.0 4.0 0.00 0.03 0.03 93 1017.9
20260902211827 75 315 2.0 5.0 0.00 0.03 0.03 94 1018.0
20260902211322 75 255 1.0 5.0 0.00 0.03 0.03 94 1017.9
20260902210818 75 180 0.0 5.0 0.00 0.03 0.03 95 1017.7
20260902210312 75 243 2.0 2.0 0.00 0.03 0.03 95 1017.8
20260902205810 75 265 2.0 5.0 0.00 0.03 0.03 95 1017.5
20260902205306 74 308 2.0 4.0 0.00 0.03 0.03 96 1017.5
20260902204800 75 263 1.0 3.0 0.00 0.03 0.03 96 1017.3
20260902204255 74 244 3.0 5.0 0.00 0.03 0.03 97 1017.3
20260902203751 75 270 0.0 4.0 0.00 0.03 0.03 97 1017.2
20260902203251 74 295 2.0 4.0 0.00 0.03 0.03 98 1017.2
20260902202745 74 230 3.0 3.0 0.00 0.03 0.03 99 1017.8
20260902202242 74 259 2.0 3.0 0.00 0.03 0.03 99 1017.6
20260902201738 74 254 1.0 5.0 0.00 0.03 0.03 99 1017.6
20260902201237 73 230 3.0 4.0 0.00 0.03 0.03 99 1017.5
20260902200733 73 234 1.0 3.0 0.00 0.03 0.03 99 1017.5
20260902200228 73 254 0.0 1.0 0.00 0.03 0.03 99 1017.8
20260902195724 73 255 2.0 2.0 0.00 0.03 0.03 99 1017.9
20260902195223 73 259 2.0 2.0 0.00 0.03 0.03 99 1017.8
20260902194723 73 264 2.0 3.0 0.00 0.03 0.03 99 1018.1
20260902194218 73 262 2.0 4.0 0.00 0.03 0.03 99 1017.9
20260902193713 74 270 0.0 0.0 0.00 0.03 0.03 99 1018.0
20260902193209 73 286 1.0 4.0 0.02 0.03 0.03 99 1018.2
20260902192707 74 273 3.0 3.0 0.02 0.03 0.03 98 1018.1
20260902192207 74 273 3.0 3.0 0.00 0.03 0.03 98 1017.9
20260902191701 74 273 3.0 3.0 0.02 0.03 0.03 98 1017.8
20260902191155 74 257 2.0 2.0 0.05 0.03 0.03 97 1017.6
20260902190651 75 270 2.0 2.0 0.05 0.02 0.02 97 1017.5
20260902190146 75 248 2.0 2.0 0.05 0.02 0.02 96 1017.4
20260902185641 75 237 2.0 2.0 0.07 0.02 0.02 96 1017.6
20260902185137 75 231 3.0 4.0 0.05 0.01 0.01 94 1018.0
20260902184632 76 243 0.0 2.0 0.00 0.00 0.00 93 1017.8
20260902184127 76 265 2.0 4.0 0.00 0.00 0.00 93 1018.1
20260902183623 76 245 2.0 2.0 0.00 0.00 0.00 93 1018.5
20260902183120 76 236 2.0 2.0 0.00 0.00 0.00 93 1018.4
20260902182616 77 234 0.0 2.0 0.00 0.00 0.00 94 1018.8
20260902182112 77 276 0.0 2.0 0.00 0.00 0.00 92 1018.8
20260902181608 77 270 0.0 2.0 0.00 0.00 0.00 92 1019.0
20260902181107 77 265 2.0 2.0 0.00 0.00 0.00 92 1019.1
20260902180607 77 270 1.0 1.0 0.00 0.00 0.00 92 1019.2
20260902175602 78 260 2.0 2.0 0.00 0.00 0.00 90 1019.0
20260902175058 78 260 2.0 2.0 0.00 0.00 0.00 90 1019.1
20260902174555 78 270 2.0 2.0 0.00 0.00 0.00 89 1019.2
20260902174050 79 259 3.0 3.0 0.00 0.00 0.00 87 1019.2
20260902173544 79 259 3.0 3.0 0.00 0.00 0.00 87 1019.3
20260902173039 79 266 3.0 3.0 0.00 0.00 0.00 87 1019.2
20260902172539 79 254 4.0 4.0 0.00 0.00 0.00 85 1019.1
20260902172034 79 262 2.0 4.0 0.00 0.00 0.00 84 1018.7
20260902171530 80 270 2.0 3.0 0.00 0.00 0.00 85 1018.6
20260902171025 80 334 2.0 4.0 0.00 0.00 0.00 85 1018.5
20260902170520 80 247 3.0 3.0 0.00 0.00 0.00 87 1018.5
20260902170016 80 210 2.0 5.0 0.00 0.00 0.00 85 1018.5
20260902165516 80 161 2.0 5.0 0.00 0.00 0.00 85 1018.5
20260902165010 80 256 0.0 4.0 0.00 0.00 0.00 84 1018.7
20260902164505 80 260 2.0 4.0 0.00 0.00 0.00 88 1018.7
20260902164004 79 166 4.0 5.0 0.00 0.00 0.00 88 1018.8
20260902163500 78 264 3.0 4.0 0.00 0.00 0.00 89 1018.7
20260902162957 78 270 2.0 3.0 0.00 0.00 0.00 88 1019.0
20260902162452 79 337 1.0 1.0 0.00 0.00 0.00 88 1018.8
20260902161947 78 255 5.0 5.0 0.00 0.00 0.00 86 1019.1
20260902161442 78 265 2.0 4.0 0.00 0.00 0.00 86 1018.9
20260902160938 78 204 4.0 4.0 0.00 0.00 0.00 88 1018.9
20260902160433 78 297 2.0 5.0 0.00 0.00 0.00 88 1018.9
20260902155931 77 295 2.0 3.0 0.00 0.00 0.00 91 1018.9
20260902155427 77 264 0.0 3.0 0.00 0.00 0.00 92 1019.1
20260902154920 77 232 0.0 2.0 0.00 0.00 0.00 92 1018.9
20260902154416 77 235 2.0 4.0 0.00 0.00 0.00 92 1018.9
20260902153915 76 213 3.0 3.0 0.00 0.00 0.00 94 1018.9
20260902153414 76 246 3.0 4.0 0.00 0.00 0.00 95 1018.9
20260902152910 75 240 2.0 3.0 0.00 0.00 0.00 95 1018.8
20260902152406 75 263 3.0 5.0 0.00 0.00 0.00 95 1018.7
20260902151901 76 232 3.0 4.0 0.00 0.00 0.00 95 1018.8
20260902151356 76 257 2.0 3.0 0.00 0.00 0.00 95 1018.9
20260902150851 76 259 2.0 5.0 0.00 0.00 0.00 94 1019.0
20260902150347 76 279 0.0 4.0 0.00 0.00 0.00 95 1019.0
20260902145846 76 254 2.0 2.0 0.00 0.00 0.00 96 1018.8
20260902145342 76 249 1.0 3.0 0.00 0.00 0.00 96 1019.1
20260902144837 75 270 1.0 2.0 0.00 0.00 0.00 97 1019.1
20260902144333 75 240 2.0 2.0 0.00 0.00 0.00 97 1019.2
20260902143827 75 324 2.0 2.0 0.00 0.00 0.00 98 1019.2
20260902143322 75 270 0.0 3.0 0.00 0.00 0.00 99 1019.0
20260902142818 74 261 2.0 3.0 0.00 0.00 0.00 99 1019.1
20260902142314 75 261 2.0 4.0 0.00 0.00 0.00 99 1019.1
20260902141809 74 265 2.0 3.0 0.00 0.00 0.00 99 1019.1
20260902141305 74 229 0.0 2.0 0.00 0.00 0.00 99 1018.8
20260902140804 74 238 3.0 3.0 0.00 0.00 0.00 99 1018.8
20260902140259 73 248 0.0 3.0 0.00 0.00 0.00 99 1018.8
20260902135758 74 290 2.0 2.0 0.00 0.00 0.00 99 1018.8
20260902135255 73 246 2.0 3.0 0.00 0.00 0.00 99 1018.9
20260902134754 73 263 3.0 3.0 0.00 0.00 0.00 99 1018.7
20260902134250 73 270 2.0 2.0 0.00 0.00 0.00 99 1018.7
20260902133745 73 237 2.0 3.0 0.00 0.00 0.00 99 1018.8
20260902133244 73 270 0.0 4.0 0.00 0.00 0.00 99 1018.7
20260902132739 73 297 2.0 4.0 0.00 0.00 0.00 99 1018.7
20260902132235 73 249 0.0 4.0 0.00 0.00 0.00 99 1018.5
20260902131730 73 262 1.0 5.0 0.00 0.00 0.00 99 1018.3
20260902131227 72 252 3.0 5.0 0.00 0.00 0.00 99 1018.3
20260902130726 73 246 1.0 4.0 0.00 0.00 0.00 99 1018.1
20260902130222 72 240 0.0 3.0 0.00 0.00 0.00 99 1018.4
20260902125717 72 283 3.0 5.0 0.00 0.00 0.00 99 1018.1
20260902125213 72 249 3.0 3.0 0.00 0.00 0.00 99 1018.2
20260902124710 72 270 2.0 3.0 0.00 0.00 0.00 99 1018.1
20260902124209 72 266 3.0 3.0 0.00 0.00 0.00 99 1018.4
20260902123705 72 274 2.0 3.0 0.00 0.00 0.00 99 1018.4
20260902123201 72 246 3.0 3.0 0.00 0.00 0.00 99 1018.4
20260902122654 72 144 2.0 3.0 0.00 0.00 0.00 99 1018.6
20260902122150 72 270 2.0 2.0 0.00 0.00 0.00 99 1018.2
20260902121644 72 270 2.0 4.0 0.00 0.00 0.00 99 1018.3
20260902121139 72 282 2.0 3.0 0.00 0.00 0.00 99 1018.4
20260902120635 72 270 2.0 3.0 0.00 0.00 0.00 99 1018.2
20260902120132 72 264 1.0 3.0 0.00 0.00 0.00 99 1018.3
20260902115626 72 254 5.0 5.0 0.00 0.00 0.00 99 1018.1
20260902115122 72 0 0.0 5.0 0.00 0.00 0.00 99 1018.1
20260902114618 72 257 2.0 3.0 0.00 0.00 0.00 99 1018.0
20260902114118 72 265 2.0 3.0 0.00 0.00 0.00 99 1018.3
20260902113613 72 251 2.0 3.0 0.00 0.00 0.00 99 1018.3
20260902113108 72 255 3.0 3.0 0.00 0.00 0.00 99 1018.1
20260902112603 72 258 2.0 4.0 0.00 0.00 0.00 99 1018.1
20260902112100 72 282 2.0 3.0 0.00 0.00 0.00 99 1018.0
20260902111556 72 260 2.0 2.0 0.00 0.00 0.00 99 1018.0
20260902111051 72 270 2.0 3.0 0.00 0.00 0.00 99 1017.8
20260902110547 72 258 2.0 2.0 0.00 0.00 0.00 99 1017.9
20260902110043 71 266 2.0 3.0 0.00 0.00 0.00 99 1017.8
20260902105537 71 261 2.0 3.0 0.00 0.00 0.00 99 1017.7
20260902105031 71 250 2.0 2.0 0.00 0.00 0.00 99 1017.7
20260902104528 71 254 2.0 3.0 0.00 0.00 0.00 99 1017.7
20260902104027 71 270 1.0 2.0 0.00 0.00 0.00 99 1017.6
20260902103523 71 217 2.0 2.0 0.00 0.00 0.00 99 1017.9
20260902103018 71 251 2.0 3.0 0.00 0.00 0.00 99 1017.5
20260902102515 71 286 2.0 3.0 0.00 0.00 0.00 99 1017.6
20260902102011 71 276 2.0 3.0 0.00 0.00 0.00 99 1017.7
20260902101506 71 270 1.0 2.0 0.00 0.00 0.00 99 1017.3
20260902101005 71 248 2.0 2.0 0.00 0.00 0.00 99 1017.3
20260902100500 71 287 2.0 3.0 0.00 0.00 0.00 99 1017.4
20260902100000 71 263 1.0 3.0 0.00 0.00 0.00 99 1017.3
20260902095454 71 270 1.0 3.0 0.00 0.00 0.00 99 1017.3
20260902094953 71 264 1.0 3.0 0.00 0.00 0.00 99 1017.5
20260902094449 71 270 2.0 2.0 0.00 0.00 0.00 99 1017.2
20260902093944 71 270 2.0 2.0 0.00 0.00 0.00 99 1017.4
20260902093439 71 261 0.0 2.0 0.00 0.00 0.00 99 1017.3
20260902092938 71 282 2.0 2.0 0.00 0.00 0.00 99 1017.2
20260902092434 71 276 2.0 2.0 0.00 0.00 0.00 99 1017.2
20260902091933 71 264 1.0 2.0 0.00 0.00 0.00 99 1017.3
20260902091429 71 264 1.0 2.0 0.00 0.00 0.00 99 1017.1
20260902090925 71 255 1.0 2.0 0.00 0.00 0.00 99 1017.2
20260902090426 71 243 2.0 2.0 0.00 0.00 0.00 99 1017.2
20260902085924 71 259 2.0 2.0 0.00 0.00 0.00 99 1017.1
20260902085420 71 248 2.0 3.0 0.00 0.00 0.00 99 1017.0
20260902084915 71 249 1.0 3.0 0.00 0.00 0.00 99 1017.0
20260902084411 71 257 2.0 3.0 0.00 0.00 0.00 99 1016.8
20260902083906 71 276 2.0 3.0 0.00 0.00 0.00 99 1016.9
20260902083401 71 251 2.0 2.0 0.00 0.00 0.00 99 1016.9
20260902082856 71 270 1.0 3.0 0.02 0.00 0.00 99 1017.1
20260902082352 71 254 2.0 2.0 0.02 0.00 0.00 99 1016.9
20260902081848 71 270 1.0 2.0 0.00 0.00 0.00 99 1016.9
20260902081344 71 261 2.0 2.0 0.00 0.00 0.00 99 1017.0
20260902080838 71 270 1.0 2.0 0.00 0.00 0.00 99 1017.3
20260902080335 71 258 2.0 2.0 0.00 0.00 0.00 99 1017.1
20260902075834 71 259 2.0 2.0 0.00 0.00 0.00 99 1016.7
20260902075331 71 257 1.0 3.0 0.00 0.00 0.00 99 1016.6
20260902074825 71 257 1.0 3.0 0.00 0.00 0.00 99 1016.9